Flag for Colombia Weather past 2 weeks in Manizales, Colombia

Now
70 °F

Passing clouds.


Feels Like: 70 °F
Forecast: 56 / 69 °F
Wind: 2 mph from North

Location: Pereira / Matecana

Current Time: Mar 29, 2015 at 8:44:07 PM

Latest Report: Mar 29, 2015 at 8:00 PM


Visibility: N/A

Pressure: 30.14 "Hg

Humidity: 78%

Dew point: 63 °F

Location of ManizalesLocation

Historic Weather in Manizales — Graph

°F

Manizales temperature yesterday

Maximum temperature yesterday: 75 °F (at 12:00 PM)
Minimum temperature yesterday: 68 °F (at 5:00 AM)
Average temperature yesterday: 71 °F

Past Weeks' High & Low Weather Summary

 TemperatureHumidityPressure
High84 °F (Mar 15, 4:00 PM)100% (Mar 16, 5:00 AM)30.19 "Hg (Mar 16, 5:00 AM)
Low63 °F (Mar 21, 6:00 AM)48% (Mar 23, 4:00 PM)29.90 "Hg (Mar 15, 4:00 PM)
Average72 °F79%30.08 "Hg
* Reported Mar 14 7:00 PM — Mar 29 7:00 PM, Manizales, Weather by CustomWeather, © 2015

Note: Actual official high and low records may vary slightly from our data, if they occured in-between our weather recording intervals... More about our weather records

Advertising

Manizales weather history for previous 24 hours

 ConditionsComfort  
Time TempWeatherWind HumidityBarometerVisibility
7:00 PM
Sun, Mar 29
72 °FPassing clouds.3 mph69%30.12 "HgN/A
6:00 PM72 °FPartly sunny.2 mph78%30.10 "HgN/A
5:00 PM72 °FPartly sunny.7 mph78%30.09 "HgN/A
4:00 PM73 °FPartly sunny.7 mph74%30.08 "HgN/A
3:00 PM73 °FPartly sunny.9 mph69%30.09 "HgN/A
2:00 PM75 °FScattered clouds.5 mph69%30.12 "HgN/A
1:00 PM72 °FBroken clouds.5 mph83%30.15 "HgN/A
12:00 PM72 °FScattered clouds.7 mph83%30.15 "HgN/A
11:00 AM73 °FBroken clouds.5 mph74%30.18 "HgN/A
10:00 AM68 °FBroken clouds.5 mph88%30.19 "HgN/A
9:00 AM66 °FPartly sunny.2 mph88%30.18 "Hg3 mi
8:00 AM64 °FDrizzle. Partly sunny.3 mph94%30.18 "Hg3 mi
7:00 AM63 °FDrizzle. Fog.3 mph100%30.18 "Hg4 mi
6:00 AM63 °FPartly cloudy.2 mph94%30.15 "Hg3 mi
5:00 AM63 °FPartly cloudy.3 mph94%30.12 "Hg3 mi
1:00 AM66 °FPartly cloudy.3 mph88%30.15 "Hg6 mi
12:00 AM66 °FPartly cloudy.6 mph94%30.15 "Hg6 mi
11:00 PM
Sat, Mar 28
68 °FFog.3 mph83%30.16 "Hg6 mi
10:00 PM68 °FScattered showers. Passing clouds.6 mph94%30.15 "Hg6 mi
9:00 PM68 °FScattered showers. Partly cloudy.6 mph88%30.12 "HgN/A
8:00 PM68 °FThunderstorms. Partly cloudy.9 mph94%30.10 "Hg5 mi
Weather by CustomWeather, © 2015

See weather overviewHow to use our weather pages